Weather History for Gulfport, MS

Change the Weather History Date:

Saturday, July 6, 2013

  Actual Average Record
Temperature  
Mean Temperature 76 °F -  
Max Temperature 80 °F 90 °F 98 °F (1957)
Min Temperature 73 °F 72 °F 32 °F (1998)
Cooling Degree Days 11    
Growing Degree Days 26 (Base 50)    
Moisture  
Dew Point 72 °F    
Average Humidity 89    
Maximum Humidity 94    
Minimum Humidity 79    
Precipitation  
Precipitation 0.89 in - - ()
Sea Level Pressure  
Sea Level Pressure 30.01 in    
Wind  
Wind Speed 5 mph (East)    
Max Wind Speed 18 mph    
Max Gust Speed 24 mph    
Visibility 8 miles    
Events Rain    
Averages and records for this station are not official NWS values.
T = Trace of Precipitation, MM = Missing Value Source: NWS Daily Summary

Daily Weather History Graph

Daily Weather History Graph

Search for Another Location

Airport:

Trip Planner

Search our weather history database for the weather conditions in past years. The results will help you decide how hot, cold, wet, or windy it might be!

Date:

Astronomy

Jul. 06, 2013 Rise Set
Actual Time 6:00 AM CDT 8:01 PM CDT
Civil Twilight 5:32 AM CDT 8:29 PM CDT
Nautical Twilight 4:59 AM CDT 9:02 PM CDT
Astronomical Twilight 4:23 AM CDT 9:37 PM CDT
Moon 4:42 AM CDT (7/6) 6:47 PM CDT (7/6)
Length of Visible Light 14h 56m
Length of Day
14h 01m
Waning Crescent, 2% of the Moon is Illuminated
Jul 6
Waning Crescent
Jul 8
New
Jul 15
First Quarter
Jul 22
Full
Jul 29
Last Quarter

Hourly Weather History & Observations

Time (CDT) Temp. Dew Point Humidity Pressure Visibility Wind Dir Wind Speed Gust Speed Precip Events Conditions
12:53 AM 75.0 °F 71.1 °F 87% 30.01 in 10.0 mi Calm Calm - 0.00 in   Overcast
1:40 AM 73.4 °F 71.6 °F 94% 30.00 in 4.0 mi ENE 4.6 mph - 0.04 in Rain Light Rain
1:53 AM 73.9 °F 71.1 °F 91% 29.99 in 10.0 mi NE 4.6 mph - 0.04 in   Mostly Cloudy
2:18 AM 73.4 °F 71.6 °F 94% 29.99 in 10.0 mi Calm Calm - 0.05 in Rain Light Rain
2:46 AM 75.2 °F 71.6 °F 89% 29.98 in 10.0 mi NE 4.6 mph - 0.05 in   Overcast
2:53 AM 75.0 °F 72.0 °F 90% 29.97 in 10.0 mi NE 3.5 mph - 0.05 in   Overcast
3:11 AM 73.4 °F 71.6 °F 94% 29.97 in 4.0 mi East 4.6 mph - 0.04 in Rain Heavy Rain
3:53 AM 73.9 °F 72.0 °F 93% 29.97 in 10.0 mi NNE 5.8 mph - 0.04 in   Mostly Cloudy
4:12 AM 75.2 °F 71.6 °F 89% 29.97 in 8.0 mi Calm Calm - 0.01 in   Overcast
4:29 AM 75.2 °F 71.6 °F 89% 29.97 in 6.0 mi Calm Calm - 0.02 in Rain Light Rain
4:36 AM 75.2 °F 73.4 °F 94% 29.97 in 2.5 mi Calm Calm - 0.05 in Rain Rain
4:45 AM 75.2 °F 71.6 °F 89% 29.97 in 5.0 mi WNW 5.8 mph - 0.05 in Rain Light Rain
4:53 AM 73.9 °F 72.0 °F 93% 29.98 in 4.0 mi Variable 3.5 mph - 0.08 in Rain Light Rain
4:55 AM 73.4 °F 71.6 °F 94% 29.98 in 2.5 mi SSW 5.8 mph - 0.04 in Rain Heavy Rain
5:03 AM 73.4 °F 71.6 °F 94% 29.99 in 1.5 mi Variable 4.6 mph - 0.09 in Rain Heavy Rain
5:10 AM 73.4 °F 71.6 °F 94% 29.99 in 3.0 mi NW 4.6 mph - 0.11 in Rain Light Rain
5:27 AM 73.4 °F 71.6 °F 94% 29.98 in 7.0 mi NNW 3.5 mph - 0.12 in Rain Light Rain
5:44 AM 75.2 °F 71.6 °F 89% 29.98 in 10.0 mi NNE 3.5 mph - 0.12 in   Overcast
5:53 AM 75.0 °F 72.0 °F 90% 29.99 in 10.0 mi Calm Calm - 0.12 in Rain Light Rain
6:21 AM 75.2 °F 71.6 °F 89% 29.99 in 10.0 mi ENE 4.6 mph - 0.00 in   Overcast
6:53 AM 75.0 °F 72.0 °F 90% 29.99 in 10.0 mi Calm Calm - 0.00 in   Mostly Cloudy
7:18 AM 75.2 °F 71.6 °F 89% 30.00 in 10.0 mi NNE 4.6 mph - N/A   Scattered Clouds
7:53 AM 75.0 °F 72.0 °F 90% 30.01 in 8.0 mi NE 3.5 mph - 0.00 in Rain Light Rain
8:08 AM 75.2 °F 71.6 °F 89% 30.01 in 5.0 mi North 5.8 mph - 0.03 in Rain Light Rain
8:38 AM 75.2 °F 73.4 °F 94% 30.02 in 10.0 mi North 6.9 mph - 0.03 in   Mostly Cloudy
8:53 AM 75.9 °F 73.0 °F 91% 30.03 in 10.0 mi North 4.6 mph - 0.03 in   Mostly Cloudy
9:14 AM 75.2 °F 71.6 °F 89% 30.03 in 10.0 mi NE 5.8 mph - N/A   Overcast
9:45 AM 75.2 °F 73.4 °F 94% 30.03 in 2.0 mi ENE 5.8 mph - 0.05 in Rain Heavy Rain
9:53 AM 75.0 °F 73.0 °F 94% 30.03 in 1.5 mi ENE 6.9 mph - 0.10 in Rain Heavy Rain
10:20 AM 75.2 °F 73.4 °F 94% 30.03 in 10.0 mi ENE 9.2 mph - 0.00 in   Overcast
10:27 AM 75.2 °F 73.4 °F 94% 30.03 in 8.0 mi East 9.2 mph - 0.00 in   Overcast
10:42 AM 75.2 °F 73.4 °F 94% 30.03 in 8.0 mi East 11.5 mph - 0.00 in Rain Light Rain
10:53 AM 75.9 °F 72.0 °F 87% 30.04 in 6.0 mi ENE 8.1 mph - 0.00 in Rain Light Rain
11:16 AM 75.2 °F 71.6 °F 89% 30.04 in 10.0 mi East 10.4 mph - N/A   Overcast
11:53 AM 75.0 °F 72.0 °F 90% 30.04 in 6.0 mi SSE 8.1 mph - 0.01 in Rain Light Rain
12:38 PM 77.0 °F 73.4 °F 89% 30.03 in 10.0 mi ESE 10.4 mph - 0.01 in Rain Light Rain
12:53 PM 77.0 °F 72.0 °F 84% 30.03 in 10.0 mi ESE 8.1 mph - 0.01 in   Mostly Cloudy
1:03 PM 78.8 °F 73.4 °F 83% 30.02 in 10.0 mi ESE 11.5 mph - N/A   Scattered Clouds
1:23 PM 78.8 °F 73.4 °F 83% 30.02 in 10.0 mi SSE 9.2 mph - N/A   Mostly Cloudy
1:53 PM 79.0 °F 73.0 °F 82% 30.02 in 10.0 mi SE 9.2 mph - N/A   Mostly Cloudy
2:53 PM 79.0 °F 73.0 °F 82% 30.00 in 10.0 mi ESE 10.4 mph - N/A   Mostly Cloudy
3:53 PM 79.0 °F 72.0 °F 79% 30.00 in 10.0 mi ESE 10.4 mph - N/A   Mostly Cloudy
4:53 PM 78.1 °F 73.9 °F 87% 30.00 in 9.0 mi East 6.9 mph - 0.01 in Rain Light Rain
5:53 PM 78.1 °F 73.9 °F 87% 29.99 in 10.0 mi ESE 8.1 mph - 0.01 in Rain Light Rain
6:29 PM 78.8 °F 73.4 °F 83% 30.00 in 9.0 mi SE 9.2 mph - 0.06 in Rain Light Rain
6:53 PM 78.1 °F 73.9 °F 87% 30.00 in 10.0 mi SE 8.1 mph - 0.11 in Rain Light Rain
7:53 PM 78.1 °F 73.9 °F 87% 30.01 in 7.0 mi SE 11.5 mph - 0.02 in Rain Light Rain
8:03 PM 78.8 °F 73.4 °F 83% 30.01 in 7.0 mi SE 11.5 mph - 0.05 in Rain Rain
8:53 PM 78.1 °F 73.9 °F 87% 30.01 in 7.0 mi SE 4.6 mph - 0.06 in   Mostly Cloudy
9:05 PM 78.8 °F 73.4 °F 83% 30.02 in 10.0 mi SE 9.2 mph - N/A   Mostly Cloudy
9:53 PM 78.1 °F 73.0 °F 84% 30.03 in 10.0 mi South 4.6 mph - N/A   Mostly Cloudy
10:53 PM 79.0 °F 73.9 °F 84% 30.04 in 10.0 mi SSE 18.4 mph 24.2 mph 0.00 in   Overcast
11:09 PM 75.2 °F 71.6 °F 89% 30.05 in 2.5 mi South 12.7 mph 24.2 mph 0.05 in Rain Heavy Rain
11:17 PM 75.2 °F 73.4 °F 94% 30.05 in 2.0 mi SSE 10.4 mph 19.6 mph 0.11 in Rain Heavy Rain
11:25 PM 75.2 °F 73.4 °F 94% 30.05 in 2.5 mi SSE 11.5 mph - 0.14 in Rain Rain
11:32 PM 75.2 °F 71.6 °F 89% 30.05 in 4.0 mi SSE 13.8 mph - 0.17 in Rain Light Rain
11:53 PM 75.0 °F 72.0 °F 90% 30.05 in 7.0 mi SSE 9.2 mph - 0.20 in Rain Light Rain